Time,TemperatureF,DewpointF,PressureIn,WindDirection,WindDirectionDegrees,WindSpeedMPH,WindSpeedGustMPH,Humidity,HourlyPrecipIn,Conditions,Clouds,dailyrainin,SoftwareType,DateUTC
2013-03-18 00:03:00,24.0,-2.0,-100.00,North,0,4.0,10.0,31,0.00,,,-99.99,,2013-03-18 04:03:00,
2013-03-18 00:13:00,24.0,-1.0,-100.00,North,0,2.0,11.0,32,0.00,,,-99.99,,2013-03-18 04:13:00,
2013-03-18 00:23:00,23.0,-1.0,-100.00,ENE,60,1.0,6.0,33,0.00,,,-99.99,,2013-03-18 04:23:00,
2013-03-18 00:33:00,23.0,-1.0,-100.00,NNE,30,2.0,6.0,34,0.00,,,-99.99,,2013-03-18 04:33:00,
2013-03-18 00:42:00,22.0,-1.0,-100.00,North,355,2.0,6.0,35,0.00,,,-99.99,,2013-03-18 04:42:00,
2013-03-18 00:52:00,22.0,-1.0,-100.00,ENE,70,2.0,4.0,34,0.00,,,-99.99,,2013-03-18 04:52:00,
2013-03-18 01:03:00,22.0,0.0,-100.00,NE,55,2.0,9.0,37,0.00,,,-99.99,,2013-03-18 05:03:00,
2013-03-18 01:12:00,22.0,0.0,-100.00,NE,45,1.0,6.0,37,0.00,,,-99.99,,2013-03-18 05:12:00,
2013-03-18 01:22:00,22.0,-1.0,-100.00,NE,50,2.0,7.0,35,0.00,,,-99.99,,2013-03-18 05:22:00,
2013-03-18 01:32:00,21.0,-1.0,-100.00,NNW,345,2.0,9.0,36,0.00,,,-99.99,,2013-03-18 05:32:00,
2013-03-18 01:43:00,21.0,-1.0,-100.00,NE,35,1.0,5.0,36,0.00,,,-99.99,,2013-03-18 05:43:00,
2013-03-18 01:52:00,21.0,-2.0,-100.00,North,0,1.0,8.0,35,0.00,,,-99.99,,2013-03-18 05:52:00,
2013-03-18 02:02:00,21.0,-2.0,-100.00,North,350,1.0,6.0,36,0.00,,,-99.99,,2013-03-18 06:02:00,
2013-03-18 02:12:00,20.0,-1.0,-100.00,North,355,1.0,7.0,37,0.00,,,-99.99,,2013-03-18 06:12:00,
2013-03-18 02:22:00,20.0,-1.0,-100.00,North,355,2.0,5.0,37,0.00,,,-99.99,,2013-03-18 06:22:00,
2013-03-18 02:32:00,20.0,-2.0,-100.00,ENE,65,2.0,9.0,35,0.00,,,-99.99,,2013-03-18 06:32:00,
2013-03-18 02:42:00,21.0,-3.0,-100.00,North,355,3.0,9.0,34,0.00,,,-99.99,,2013-03-18 06:42:00,
2013-03-18 02:52:00,20.0,-3.0,-100.00,NE,50,2.0,6.0,34,0.00,,,-99.99,,2013-03-18 06:52:00,
2013-03-18 03:02:00,20.0,-3.0,-100.00,ENE,70,1.0,9.0,35,0.00,,,-99.99,,2013-03-18 07:02:00,
2013-03-18 03:13:00,20.0,-3.0,-100.00,NNW,330,2.0,7.0,35,0.00,,,-99.99,,2013-03-18 07:13:00,
2013-03-18 03:23:00,20.0,-3.0,-100.00,NNE,25,2.0,7.0,35,0.00,,,-99.99,,2013-03-18 07:23:00,
2013-03-18 03:33:00,20.0,-2.0,-100.00,NE,45,1.0,5.0,37,0.00,,,-99.99,,2013-03-18 07:33:00,
2013-03-18 03:42:00,19.0,-3.0,-100.00,NNW,345,2.0,4.0,35,0.00,,,-99.99,,2013-03-18 07:42:00,
2013-03-18 03:52:00,19.0,-2.0,-100.00,ENE,70,1.0,4.0,37,0.00,,,-99.99,,2013-03-18 07:52:00,
2013-03-18 04:02:00,19.0,-3.0,-100.00,North,5,2.0,6.0,37,0.00,,,-99.99,,2013-03-18 08:02:00,
2013-03-18 04:12:00,19.0,-2.0,-100.00,ENE,65,1.0,3.0,38,0.00,,,-99.99,,2013-03-18 08:12:00,
2013-03-18 04:22:00,18.0,-2.0,-100.00,ENE,70,1.0,2.0,40,0.00,,,-99.99,,2013-03-18 08:22:00,
2013-03-18 04:32:00,18.0,-1.0,-100.00,South,170,1.0,2.0,43,0.00,,,-99.99,,2013-03-18 08:32:00,
2013-03-18 04:43:00,18.0,0.0,-100.00,NW,320,1.0,3.0,44,0.00,,,-99.99,,2013-03-18 08:43:00,
2013-03-18 04:52:00,17.0,0.0,-100.00,NW,305,2.0,3.0,45,0.00,,,-99.99,,2013-03-18 08:52:00,
2013-03-18 05:02:00,17.0,0.0,-100.00,NW,315,1.0,3.0,45,0.00,,,-99.99,,2013-03-18 09:02:00,
2013-03-18 05:13:00,17.0,0.0,-100.00,ESE,105,0.0,2.0,47,0.00,,,-99.99,,2013-03-18 09:13:00,
2013-03-18 05:22:00,17.0,1.0,-100.00,NW,325,0.0,2.0,48,0.00,,,-99.99,,2013-03-18 09:22:00,
2013-03-18 05:33:00,17.0,1.0,-100.00,NW,325,1.0,3.0,49,0.00,,,-99.99,,2013-03-18 09:33:00,
2013-03-18 05:43:00,16.0,1.0,-100.00,North,0,0.0,2.0,50,0.00,,,-99.99,,2013-03-18 09:43:00,
2013-03-18 05:53:00,16.0,2.0,-100.00,North,10,0.0,1.0,53,0.00,,,-99.99,,2013-03-18 09:53:00,
2013-03-18 06:04:00,16.0,1.0,-100.00,North,350,1.0,2.0,52,0.00,,,-99.99,,2013-03-18 10:04:00,
2013-03-18 06:13:00,17.0,2.0,-100.00,NW,315,2.0,4.0,51,0.00,,,-99.99,,2013-03-18 10:13:00,
2013-03-18 06:23:00,16.0,3.0,-100.00,NNE,15,1.0,4.0,54,0.00,,,-99.99,,2013-03-18 10:23:00,
2013-03-18 06:33:00,16.0,3.0,-100.00,North,0,0.0,4.0,55,0.00,,,-99.99,,2013-03-18 10:33:00,
2013-03-18 06:42:00,16.0,4.0,-100.00,ESE,110,1.0,2.0,57,0.00,,,-99.99,,2013-03-18 10:42:00,
2013-03-18 06:53:00,16.0,3.0,-100.00,WNW,285,1.0,2.0,56,0.00,,,-99.99,,2013-03-18 10:53:00,
2013-03-18 07:03:00,15.0,2.0,-100.00,ENE,70,0.0,4.0,55,0.00,,,-99.99,,2013-03-18 11:03:00,
2013-03-18 07:13:00,15.0,3.0,-100.00,ENE,70,1.0,1.0,57,0.00,,,-99.99,,2013-03-18 11:13:00,
2013-03-18 07:22:00,15.0,2.0,-100.00,NNE,20,1.0,3.0,56,0.00,,,-99.99,,2013-03-18 11:22:00,
2013-03-18 07:32:00,16.0,3.0,-100.00,NW,315,1.0,4.0,55,0.00,,,-99.99,,2013-03-18 11:32:00,
2013-03-18 07:42:00,17.0,3.0,-100.00,WNW,295,1.0,4.0,55,0.00,,,-99.99,,2013-03-18 11:42:00,
2013-03-18 07:52:00,17.0,3.0,-100.00,NNW,340,2.0,4.0,52,0.00,,,-99.99,,2013-03-18 11:52:00,
2013-03-18 08:03:00,17.0,2.0,-100.00,North,355,2.0,4.0,52,0.00,,,-99.99,,2013-03-18 12:03:00,
2013-03-18 08:13:00,17.0,2.0,-100.00,West,270,1.0,4.0,50,0.00,,,-99.99,,2013-03-18 12:13:00,
2013-03-18 08:22:00,18.0,1.0,-100.00,NNW,330,2.0,4.0,47,0.00,,,-99.99,,2013-03-18 12:22:00,
2013-03-18 08:33:00,19.0,1.0,-100.00,NNW,340,1.0,4.0,44,0.00,,,-99.99,,2013-03-18 12:33:00,
2013-03-18 08:43:00,20.0,0.0,-100.00,NNW,345,3.0,7.0,40,0.00,,,-99.99,,2013-03-18 12:43:00,
2013-03-18 08:52:00,20.0,0.0,-100.00,North,10,2.0,8.0,39,0.00,,,-99.99,,2013-03-18 12:52:00,
2013-03-18 09:03:00,21.0,0.0,-100.00,NE,55,1.0,7.0,39,0.00,,,-99.99,,2013-03-18 13:03:00,
2013-03-18 09:12:00,22.0,-1.0,-100.00,NE,45,3.0,5.0,37,0.00,,,-99.99,,2013-03-18 13:12:00,
2013-03-18 09:22:00,22.0,-2.0,-100.00,East,80,1.0,6.0,34,0.00,,,-99.99,,2013-03-18 13:22:00,
2013-03-18 09:33:00,22.0,-1.0,-100.00,ENE,75,2.0,6.0,34,0.00,,,-99.99,,2013-03-18 13:33:00,
2013-03-18 09:42:00,23.0,-2.0,-100.00,NNE,15,1.0,5.0,32,0.00,,,-99.99,,2013-03-18 13:42:00,
2013-03-18 09:52:00,24.0,-4.0,-100.00,NNW,340,2.0,4.0,28,0.00,,,-99.99,,2013-03-18 13:52:00,
2013-03-18 10:03:00,24.0,-3.0,-100.00,West,270,1.0,4.0,29,0.00,,,-99.99,,2013-03-18 14:03:00,
2013-03-18 10:12:00,24.0,-3.0,-100.00,ENE,60,3.0,5.0,29,0.00,,,-99.99,,2013-03-18 14:12:00,
2013-03-18 10:22:00,25.0,-2.0,-100.00,South,180,1.0,7.0,30,0.00,,,-99.99,,2013-03-18 14:22:00,
2013-03-18 10:32:00,27.0,-1.0,-100.00,South,185,4.0,6.0,29,0.00,,,-99.99,,2013-03-18 14:32:00,
2013-03-18 10:42:00,27.0,0.0,-100.00,NW,325,2.0,6.0,29,0.00,,,-99.99,,2013-03-18 14:42:00,
2013-03-18 10:52:00,28.0,1.0,-100.00,WSW,245,3.0,6.0,30,0.00,,,-99.99,,2013-03-18 14:52:00,
2013-03-18 11:02:00,29.0,2.0,-100.00,East,90,1.0,7.0,30,0.00,,,-99.99,,2013-03-18 15:02:00,
2013-03-18 11:12:00,29.0,2.0,-100.00,NW,325,3.0,6.0,30,0.00,,,-99.99,,2013-03-18 15:12:00,
2013-03-18 11:22:00,29.0,2.0,-100.00,WSW,250,4.0,6.0,30,0.00,,,-99.99,,2013-03-18 15:22:00,
2013-03-18 11:33:00,30.0,2.0,-100.00,SSW,195,4.0,7.0,30,0.00,,,-99.99,,2013-03-18 15:33:00,
2013-03-18 11:43:00,31.0,2.0,-100.00,South,190,4.0,7.0,28,0.00,,,-99.99,,2013-03-18 15:43:00,
2013-03-18 11:52:00,31.0,2.0,-100.00,South,175,2.0,8.0,28,0.00,,,-99.99,,2013-03-18 15:52:00,
2013-03-18 12:03:00,31.0,2.0,-100.00,SW,235,2.0,9.0,28,0.00,,,-99.99,,2013-03-18 16:03:00,
2013-03-18 12:12:00,32.0,2.0,-100.00,SSW,200,4.0,7.0,27,0.00,,,-99.99,,2013-03-18 16:12:00,
2013-03-18 12:23:00,31.0,3.0,-100.00,ESE,110,2.0,11.0,29,0.00,,,-99.99,,2013-03-18 16:23:00,
2013-03-18 12:33:00,32.0,1.0,-100.00,NNE,20,2.0,7.0,25,0.00,,,-99.99,,2013-03-18 16:33:00,
2013-03-18 12:42:00,33.0,1.0,-100.00,NW,315,2.0,7.0,25,0.00,,,-99.99,,2013-03-18 16:42:00,
2013-03-18 12:52:00,33.0,1.0,-100.00,SW,225,3.0,6.0,25,0.00,,,-99.99,,2013-03-18 16:52:00,
2013-03-18 13:03:00,34.0,1.0,-100.00,North,0,1.0,4.0,24,0.00,,,-99.99,,2013-03-18 17:03:00,
2013-03-18 13:12:00,34.0,2.0,-100.00,West,270,2.0,6.0,24,0.00,,,-99.99,,2013-03-18 17:12:00,
2013-03-18 13:22:00,35.0,2.0,-100.00,SSW,210,2.0,4.0,24,0.00,,,-99.99,,2013-03-18 17:22:00,
2013-03-18 13:33:00,34.0,1.0,-100.00,WSW,245,3.0,6.0,24,0.00,,,-99.99,,2013-03-18 17:33:00,
2013-03-18 13:42:00,34.0,1.0,-100.00,SSW,195,4.0,7.0,23,0.00,,,-99.99,,2013-03-18 17:42:00,
2013-03-18 13:52:00,35.0,1.0,-100.00,SSW,195,4.0,8.0,22,0.00,,,-99.99,,2013-03-18 17:52:00,
2013-03-18 14:02:00,36.0,0.0,-100.00,SSW,195,3.0,8.0,21,0.00,,,-99.99,,2013-03-18 18:02:00,
2013-03-18 14:13:00,35.0,-1.0,-100.00,South,175,2.0,9.0,21,0.00,,,-99.99,,2013-03-18 18:13:00,
2013-03-18 14:22:00,37.0,1.0,-100.00,South,175,4.0,7.0,21,0.00,,,-99.99,,2013-03-18 18:22:00,
2013-03-18 14:32:00,36.0,1.0,-100.00,WSW,255,2.0,8.0,22,0.00,,,-99.99,,2013-03-18 18:32:00,
2013-03-18 14:42:00,37.0,1.0,-100.00,NNW,330,1.0,5.0,21,0.00,,,-99.99,,2013-03-18 18:42:00,
2013-03-18 14:52:00,37.0,1.0,-100.00,NNW,345,1.0,7.0,21,0.00,,,-99.99,,2013-03-18 18:52:00,
2013-03-18 15:03:00,38.0,1.0,-100.00,NNE,15,2.0,6.0,20,0.00,,,-99.99,,2013-03-18 19:03:00,
2013-03-18 15:12:00,38.0,1.0,-100.00,SSW,200,3.0,7.0,20,0.00,,,-99.99,,2013-03-18 19:12:00,
2013-03-18 15:22:00,37.0,0.0,-100.00,South,170,4.0,6.0,20,0.00,,,-99.99,,2013-03-18 19:22:00,
2013-03-18 15:33:00,38.0,1.0,-100.00,SE,145,1.0,6.0,21,0.00,,,-99.99,,2013-03-18 19:33:00,
2013-03-18 15:42:00,38.0,0.0,-100.00,North,350,1.0,7.0,19,0.00,,,-99.99,,2013-03-18 19:42:00,
2013-03-18 15:52:00,38.0,0.0,-100.00,WNW,285,2.0,8.0,19,0.00,,,-99.99,,2013-03-18 19:52:00,
2013-03-18 16:03:00,38.0,0.0,-100.00,WNW,290,2.0,7.0,20,0.00,,,-99.99,,2013-03-18 20:03:00,
2013-03-18 16:12:00,38.0,1.0,-100.00,WNW,290,3.0,6.0,20,0.00,,,-99.99,,2013-03-18 20:12:00,
2013-03-18 16:23:00,38.0,0.0,-100.00,SW,235,2.0,6.0,19,0.00,,,-99.99,,2013-03-18 20:23:00,
2013-03-18 16:33:00,38.0,0.0,-100.00,SW,235,3.0,7.0,20,0.00,,,-99.99,,2013-03-18 20:33:00,
2013-03-18 16:42:00,38.0,2.0,-100.00,South,185,2.0,7.0,20,0.00,,,-99.99,,2013-03-18 20:42:00,
2013-03-18 16:52:00,38.0,1.0,-100.00,WNW,300,2.0,7.0,20,0.00,,,-99.99,,2013-03-18 20:52:00,
2013-03-18 17:02:00,38.0,0.0,-100.00,South,185,5.0,7.0,20,0.00,,,-99.99,,2013-03-18 21:02:00,
2013-03-18 17:12:00,38.0,0.0,-100.00,South,175,2.0,7.0,19,0.00,,,-99.99,,2013-03-18 21:12:00,
2013-03-18 17:22:00,38.0,0.0,-100.00,SW,220,3.0,6.0,19,0.00,,,-99.99,,2013-03-18 21:22:00,
2013-03-18 17:33:00,38.0,0.0,-100.00,SSW,200,2.0,6.0,20,0.00,,,-99.99,,2013-03-18 21:33:00,
2013-03-18 17:43:00,36.0,10.0,-100.00,South,175,3.0,9.0,32,0.00,,,-99.99,,2013-03-18 21:43:00,
2013-03-18 17:52:00,36.0,11.0,-100.00,South,190,4.0,11.0,35,0.00,,,-99.99,,2013-03-18 21:52:00,
2013-03-18 18:03:00,35.0,11.0,-100.00,SSE,160,3.0,10.0,36,0.00,,,-99.99,,2013-03-18 22:03:00,
2013-03-18 18:13:00,35.0,12.0,-100.00,South,185,9.0,12.0,38,0.00,,,-99.99,,2013-03-18 22:13:00,
2013-03-18 18:23:00,35.0,13.0,-100.00,South,185,6.0,9.0,39,0.00,,,-99.99,,2013-03-18 22:23:00,
2013-03-18 18:33:00,35.0,14.0,-100.00,South,185,6.0,12.0,41,0.00,,,-99.99,,2013-03-18 22:33:00,
2013-03-18 18:42:00,34.0,13.0,-100.00,South,180,6.0,11.0,42,0.00,,,-99.99,,2013-03-18 22:42:00,
2013-03-18 18:52:00,34.0,14.0,-100.00,South,185,6.0,9.0,44,0.00,,,-99.99,,2013-03-18 22:52:00,
2013-03-18 19:03:00,33.0,15.0,-100.00,South,185,8.0,12.0,47,0.00,,,-99.99,,2013-03-18 23:03:00,
2013-03-18 19:13:00,33.0,16.0,-100.00,South,190,4.0,10.0,49,0.00,,,-99.99,,2013-03-18 23:13:00,
2013-03-18 19:23:00,33.0,17.0,-100.00,SSW,200,4.0,8.0,51,0.00,,,-99.99,,2013-03-18 23:23:00,
2013-03-18 19:33:00,32.0,18.0,-100.00,South,180,7.0,11.0,54,0.00,,,-99.99,,2013-03-18 23:33:00,
2013-03-18 19:42:00,32.0,18.0,-100.00,South,185,6.0,9.0,55,0.00,,,-99.99,,2013-03-18 23:42:00,
2013-03-18 19:52:00,32.0,18.0,-100.00,South,190,6.0,13.0,56,0.00,,,-99.99,,2013-03-18 23:52:00,
2013-03-18 20:03:00,32.0,18.0,-100.00,South,190,6.0,11.0,57,0.00,,,-99.99,,2013-03-19 00:03:00,
2013-03-18 20:12:00,32.0,19.0,-100.00,South,190,7.0,11.0,57,0.00,,,-99.99,,2013-03-19 00:12:00,
2013-03-18 20:23:00,32.0,19.0,-100.00,South,185,7.0,11.0,58,0.00,,,-99.99,,2013-03-19 00:23:00,
2013-03-18 20:32:00,32.0,19.0,-100.00,South,190,4.0,10.0,59,0.00,,,-99.99,,2013-03-19 00:32:00,
2013-03-18 20:42:00,32.0,19.0,-100.00,South,190,5.0,12.0,58,0.00,,,-99.99,,2013-03-19 00:42:00,
2013-03-18 20:52:00,32.0,20.0,-100.00,South,185,4.0,11.0,59,0.00,,,-99.99,,2013-03-19 00:52:00,
2013-03-18 21:02:00,32.0,20.0,-100.00,SSE,150,2.0,6.0,60,0.00,,,-99.99,,2013-03-19 01:02:00,
2013-03-18 21:12:00,32.0,20.0,-100.00,South,180,4.0,7.0,59,0.00,,,-99.99,,2013-03-19 01:12:00,
2013-03-18 21:23:00,32.0,20.0,-100.00,South,185,3.0,7.0,59,0.00,,,-99.99,,2013-03-19 01:23:00,
2013-03-18 21:33:00,32.0,19.0,-100.00,South,180,4.0,6.0,58,0.00,,,-99.99,,2013-03-19 01:33:00,
2013-03-18 21:43:00,32.0,19.0,-100.00,SSW,195,4.0,9.0,58,0.00,,,-99.99,,2013-03-19 01:43:00,
2013-03-18 21:52:00,32.0,19.0,-100.00,South,170,1.0,9.0,58,0.00,,,-99.99,,2013-03-19 01:52:00,
2013-03-18 22:03:00,32.0,19.0,-100.00,South,185,4.0,6.0,58,0.00,,,-99.99,,2013-03-19 02:03:00,
2013-03-18 22:13:00,32.0,19.0,-100.00,South,185,6.0,8.0,57,0.00,,,-99.99,,2013-03-19 02:13:00,
2013-03-18 22:23:00,33.0,19.0,-100.00,South,180,5.0,9.0,56,0.00,,,-99.99,,2013-03-19 02:23:00,
2013-03-18 22:33:00,32.0,18.0,-100.00,South,190,9.0,12.0,56,0.00,,,-99.99,,2013-03-19 02:33:00,
2013-03-18 22:42:00,33.0,19.0,-100.00,South,190,6.0,9.0,56,0.00,,,-99.99,,2013-03-19 02:42:00,
2013-03-18 22:52:00,32.0,18.0,-100.00,South,175,4.0,12.0,56,0.00,,,-99.99,,2013-03-19 02:52:00,
2013-03-18 23:02:00,32.0,18.0,-100.00,South,185,4.0,9.0,55,0.00,,,-99.99,,2013-03-19 03:02:00,
2013-03-18 23:12:00,32.0,18.0,-100.00,South,185,5.0,9.0,55,0.00,,,-99.99,,2013-03-19 03:12:00,
2013-03-18 23:22:00,32.0,18.0,-100.00,South,185,6.0,9.0,55,0.00,,,-99.99,,2013-03-19 03:22:00,
2013-03-18 23:33:00,32.0,19.0,-100.00,SSW,200,3.0,9.0,57,0.00,,,-99.99,,2013-03-19 03:33:00,
2013-03-18 23:43:00,31.0,20.0,-100.00,WSW,250,4.0,10.0,63,0.00,,,-99.99,,2013-03-19 03:43:00,
2013-03-18 23:53:00,30.0,22.0,-100.00,SW,215,4.0,13.0,73,0.04,,,-99.99,,2013-03-19 03:53:00,